Location: Adamstown South Public School
(32.9318°S, 151.7012°E)
Time: 15:51:14
(UTC+00:00)

CZ-3C R/B - Pass Details

Date: 07 June 2020
Orbit: 288 x 33572 km, 20.3° (Epoch: 04 July)

Event Time Altitude Azimuth Distance (km) Brightness Sun altitude
Rises 08:50:24 0° 309° (NW) 2,347 5.1 -23.9°
Reaches altitude 10° 08:52:39 10° 341° (NNW) 2,017 4.1 -24.4°
Maximum altitude 08:55:07 14° 15° (NNE) 2,432 4.0 -24.9°
Drops below altitude 10° 08:59:42 10° 45° (NE) 4,206 5.0 -25.8°
Enters shadow 09:00:15 - 47° (NE) 4,440 5.1 -25.9°
